Temp
19 18 18 19 26 29 28 27 28 26 26 25 24 24 20 19 21 21 17 17 17 18 17 17 18 18 18 18 18 18 18 18 18 18 18 18 18 18 18 18 17 18 18 18 18 18 18 17 17
18 18 19 23 28 28 27 28 27 27 25 24 23 22 19 20 16 17 17 18 17 16 18 17 18 18 18 18 18 18 18 18 18 18 18 19 18 18 17 18 17 18 18 18 18 18 18 18 18
19 19 22 27 29 27 27 27 26 24 24 24 22 22 20 16 16 17 17 18 18 17 17 17 18 18 18 18 18 18 18 18 18 18 19 19 19 18 17 17 17 18 18 18 18 18 18 18 17
19 20 23 28 28 27 28 27 26 25 24 23 23 22 19 18 16 18 18 18 18 17 18 18 18 17 18 18 18 18 18 18 18 18 18 19 19 18 17 17 17 18 18 18 18 18 18 18 18
20 22 28 28 27 28 27 26 26 26 25 23 23 22 19 18 17 18 18 18 18 17 18 17 18 18 17 17 17 18 18 18 18 18 18 18 19 19 18 18 17 17 17 18 18 17 18 18 17
23 24 29 28 27 27 27 26 25 25 23 22 22 20 18 18 17 18 17 18 18 17 18 17 18 18 18 18 18 18 18 18 18 18 18 18 18 19 19 18 18 18 18 18 18 18 17 18 18
24 29 28 28 27 27 26 25 26 25 24 23 22 21 19 18 18 18 18 18 18 17 17 17 17 17 18 18 18 18 18 18 18 18 18 18 18 18 18 18 18 17 18 18 18 18 17 17 17
23 28 28 28 27 26 26 25 25 25 23 21 21 21 20 19 18 19 19 18 18 17 16 17 18 18 18 17 18 18 18 18 18 18 19 18 18 18 18 18 18 17 17 17 18 18 18 17 17
23 29 28 27 27 27 26 26 24 24 23 23 22 22 20 18 18 17 17 18 17 17 16 17 18 18 17 17 17 18 18 19 18 18 19 18 18 17 17 17 17 17 17 17 17 17 18 17 17
27 29 27 27 28 28 26 26 25 25 24 23 22 21 20 18 18 17 19 18 18 19 18 17 17 18 18 18 17 17 17 18 17 17 17 17 17 17 18 17 17 17 17 16 17 17 17 17 17
28 28 28 27 28 27 25 26 26 26 26 24 22 21 19 18 17 18 19 20 20 20 18 18 17 17 18 18 18 18 18 18 18 19 18 17 17 18 18 17 17 17 17 16 17 17 17 17 17
27 27 27 27 27 27 27 26 26 25 26 24 22 21 19 19 19 21 21 21 21 20 18 17 18 17 18 18 18 18 18 18 18 18 19 18 18 18 18 18 18 17 17 16 16 17 16 16 17
28 27 27 27 27 27 26 26 26 25 24 24 22 21 21 21 19 21 21 21 21 20 18 19 18 19 17 19 18 18 18 19 19 19 18 18 18 18 18 18 18 18 17 17 17 17 16 16 17
28 27 27 28 28 27 27 25 26 24 25 24 22 21 21 22 22 22 21 22 21 20 19 19 18 19 18 17 19 18 18 18 18 19 19 19 18 19 18 18 18 18 18 17 17 17 16 17 17
27 26 27 27 28 27 27 26 27 24 24 23 22 22 22 22 22 22 22 21 21 21 20 19 19 19 19 20 19 18 18 19 19 19 18 19 19 18 19 18 18 18 18 17 17 17 18 17 17
29 28 26 25 27 25 27 26 25 24 24 24 23 22 22 22 22 22 22 22 21 21 20 19 19 20 19 18 19 18 19 19 19 19 19 19 19 19 18 19 19 19 18 18 18 17 17 18 17
31 29 27 27 27 28 28 27 25 25 26 25 24 24 22 22 22 22 22 22 22 21 20 20 20 19 20 19 19 18 19 19 19 19 19 20 19 19 19 18 18 17 17 17 17 17 18 18 19
30 30 29 27 27 28 28 27 26 25 26 26 25 25 23 23 23 23 23 22 22 22 21 20 20 20 19 19 20 19 19 19 19 20 20 20 19 19 19 18 18 18 18 17 17 17 18 19 19
30 30 30 29 29 28 28 28 27 26 27 27 26 26 25 25 24 24 23 23 22 22 21 21 20 20 20 19 19 20 20 20 20 20 20 20 19 19 19 19 18 18 18 17 17 17 17 18 18
31 31 30 29 28 29 27 28 28 27 27 27 27 26 26 26 25 24 24 23 23 23 22 21 21 21 21 20 20 20 20 20 20 20 20 20 20 20 19 19 19 18 18 17 17 17 19 19 18
33 32 31 30 28 28 28 27 27 28 27 27 27 26 27 26 26 26 25 24 24 23 22 21 21 22 22 21 21 21 20 20 20 20 20 20 20 20 19 19 19 19 18 18 18 18 18 19 19
33 31 31 29 29 30 30 30 27 28 27 27 27 27 26 26 26 26 26 25 25 24 23 22 22 23 22 22 22 21 21 21 21 21 21 20 21 20 19 19 19 19 19 18 18 18 18 19 20
31 31 31 30 30 30 29 30 28 29 28 28 28 27 27 27 27 26 26 26 26 26 24 23 21 23 23 23 22 21 21 21 21 21 20 20 21 21 19 19 19 20 18 18 18 18 19 19 20
31 31 30 31 32 32 30 30 31 29 29 29 28 28 28 27 27 27 26 26 26 26 25 24 22 24 23 23 23 22 20 20 21 20 21 21 21 20 20 19 19 19 18 18 18 18 18 19 19
31 33 33 32 32 32 31 31 31 30 29 29 30 28 28 27 27 26 26 26 26 26 25 24 23 25 24 24 23 22 22 21 20 20 21 21 21 21 20 20 20 19 20 18 18 18 18 18 19
32 34 33 31 32 32 30 31 30 30 29 27 28 28 27 27 27 27 27 26 25 25 25 24 24 25 25 24 23 23 22 21 20 20 21 21 21 21 20 21 20 20 21 20 19 18 18 19 18
33 32 34 34 33 33 33 31 30 29 29 27 28 27 26 26 26 27 26 26 25 25 25 24 24 24 24 23 24 23 23 22 21 21 20 20 20 21 21 21 21 21 20 20 19 19 18 18 18
33 34 33 34 31 31 33 31 30 28 27 27 27 26 26 25 25 25 25 26 25 25 25 25 24 24 23 22 24 24 24 23 23 22 21 20 20 20 20 21 21 20 20 20 20 19 19 19 19
32 33 34 34 34 32 32 30 31 27 27 27 26 26 26 25 26 26 26 26 26 25 25 25 24 24 23 25 24 24 24 24 23 23 22 22 20 20 21 21 20 20 19 20 21 21 20 19 19
34 35 35 34 32 33 33 30 30 29 27 26 26 26 25 24 24 24 25 25 24 24 25 24 25 24 23 23 25 25 25 24 23 23 23 22 22 22 22 22 21 21 21 21 20 21 20 20 20
Height
1527 1527 1528 1527 1522 1507 1517 1523 1517 1525 1525 1531 1536 1537 1545 1549 1547 1555 1563 1566 1569 1574 1574 1574 1574 1574 1575 1575 1576 1577 1577 1578 1578 1578 1579 1579 1580 1580 1580 1579 1581 1581 1581 1581 1582 1583 1584 1585 1586
1530 1528 1528 1523 1512 1518 1526 1517 1522 1525 1532 1535 1539 1542 1547 1552 1554 1559 1563 1567 1569 1573 1577 1577 1575 1576 1576 1578 1578 1579 1580 1580 1581 1581 1581 1582 1582 1582 1582 1582 1582 1583 1583 1583 1584 1585 1586 1587 1587
1530 1528 1528 1518 1510 1524 1528 1521 1527 1533 1536 1536 1541 1544 1549 1556 1557 1562 1566 1568 1570 1573 1575 1575 1576 1577 1577 1579 1581 1581 1582 1582 1583 1583 1583 1584 1584 1584 1584 1584 1584 1585 1585 1585 1586 1586 1587 1588 1589
1531 1532 1529 1514 1523 1525 1522 1524 1530 1534 1537 1539 1541 1546 1553 1556 1559 1562 1566 1570 1572 1577 1580 1576 1578 1579 1579 1581 1581 1583 1584 1584 1585 1586 1585 1586 1585 1586 1585 1586 1586 1587 1587 1587 1588 1588 1589 1590 1590
1534 1532 1520 1519 1525 1525 1527 1532 1533 1533 1537 1540 1542 1548 1555 1561 1561 1566 1569 1572 1573 1578 1581 1581 1580 1581 1582 1583 1584 1585 1586 1587 1587 1587 1587 1588 1588 1588 1588 1588 1588 1589 1589 1590 1590 1590 1591 1591 1592
1533 1528 1515 1526 1531 1529 1532 1534 1536 1536 1541 1544 1545 1552 1560 1564 1566 1568 1573 1573 1575 1579 1583 1582 1582 1583 1584 1585 1586 1587 1588 1588 1588 1588 1588 1589 1589 1590 1590 1590 1590 1590 1591 1591 1592 1592 1592 1593 1593
1532 1519 1524 1525 1533 1531 1533 1537 1536 1537 1541 1544 1548 1552 1560 1566 1568 1570 1575 1574 1577 1579 1580 1584 1586 1585 1586 1586 1587 1588 1589 1589 1589 1590 1590 1590 1590 1591 1591 1591 1591 1592 1592 1593 1593 1593 1594 1594 1594
1533 1525 1527 1528 1530 1537 1536 1539 1540 1540 1545 1547 1550 1554 1559 1566 1568 1572 1573 1575 1577 1580 1582 1584 1588 1589 1590 1589 1588 1589 1589 1590 1590 1590 1590 1591 1591 1592 1592 1592 1592 1593 1593 1593 1594 1594 1595 1595 1595
1534 1521 1527 1532 1530 1535 1538 1539 1543 1544 1546 1547 1549 1551 1559 1565 1569 1574 1576 1579 1581 1583 1584 1584 1588 1589 1589 1591 1589 1589 1590 1591 1591 1591 1591 1592 1595 1595 1595 1593 1590 1590 1592 1592 1592 1593 1594 1595 1595
1530 1523 1531 1531 1530 1531 1538 1538 1543 1545 1546 1549 1551 1557 1564 1568 1569 1572 1578 1579 1581 1583 1585 1583 1586 1590 1591 1592 1592 1593 1593 1595 1594 1593 1592 1594 1594 1594 1593 1592 1591 1589 1589 1590 1588 1590 1593 1595 1598
1528 1528 1530 1531 1530 1533 1540 1540 1542 1543 1544 1550 1554 1560 1564 1568 1572 1575 1578 1580 1582 1583 1584 1584 1586 1588 1591 1593 1594 1594 1594 1594 1594 1592 1592 1594 1594 1595 1593 1589 1589 1585 1587 1584 1585 1589 1592 1593 1596
1531 1531 1530 1532 1533 1534 1538 1542 1544 1545 1546 1552 1559 1563 1566 1570 1573 1574 1577 1579 1581 1584 1585 1585 1588 1588 1592 1592 1593 1593 1594 1593 1595 1594 1592 1593 1594 1594 1591 1590 1588 1585 1584 1583 1585 1588 1591 1592 1593
1528 1531 1532 1532 1533 1535 1539 1541 1545 1547 1550 1554 1561 1565 1567 1570 1572 1575 1577 1580 1582 1584 1584 1584 1588 1587 1590 1590 1593 1593 1593 1594 1595 1593 1594 1593 1593 1592 1590 1588 1586 1585 1585 1585 1585 1586 1589 1590 1593
1531 1533 1533 1533 1532 1535 1537 1543 1544 1549 1550 1556 1561 1566 1569 1571 1572 1574 1576 1579 1582 1584 1584 1585 1587 1587 1589 1590 1591 1592 1593 1594 1593 1594 1594 1592 1592 1590 1588 1587 1585 1584 1583 1584 1584 1586 1588 1592 1593
1532 1536 1535 1537 1534 1536 1537 1543 1541 1548 1552 1557 1564 1566 1568 1570 1573 1574 1576 1578 1580 1582 1584 1585 1587 1588 1588 1589 1590 1592 1593 1594 1594 1594 1593 1591 1591 1591 1588 1588 1585 1584 1581 1582 1582 1584 1586 1589 1592
1525 1532 1540 1540 1536 1538 1537 1546 1545 1549 1550 1556 1562 1567 1569 1569 1571 1574 1575 1577 1580 1582 1583 1585 1587 1589 1589 1591 1591 1593 1593 1593 1593 1593 1593 1591 1590 1589 1587 1586 1584 1582 1580 1580 1582 1585 1587 1589 1591
1517 1532 1536 1537 1534 1533 1533 1539 1545 1549 1548 1552 1558 1563 1569 1570 1571 1573 1574 1576 1578 1580 1583 1583 1585 1588 1590 1590 1591 1592 1592 1593 1592 1592 1592 1590 1589 1588 1587 1587 1585 1583 1581 1580 1582 1585 1587 1590 1594
1528 1523 1529 1535 1533 1530 1531 1536 1543 1547 1547 1550 1555 1559 1564 1567 1569 1571 1573 1575 1577 1579 1581 1582 1584 1586 1587 1589 1590 1592 1592 1592 1592 1592 1592 1590 1590 1589 1587 1588 1585 1583 1584 1582 1584 1586 1589 1592 1594
1519 1520 1524 1526 1527 1529 1531 1534 1538 1544 1546 1548 1552 1556 1560 1563 1566 1570 1573 1575 1576 1578 1579 1580 1583 1585 1586 1588 1590 1591 1592 1592 1592 1591 1589 1589 1589 1588 1587 1588 1585 1586 1586 1584 1584 1587 1589 1592 1593
1514 1518 1519 1524 1527 1528 1533 1533 1535 1540 1543 1547 1550 1553 1557 1560 1563 1567 1570 1572 1574 1576 1578 1579 1580 1582 1584 1586 1588 1589 1590 1590 1590 1590 1589 1588 1589 1588 1588 1587 1587 1586 1585 1585 1586 1588 1592 1593 1594
1504 1512 1515 1521 1527 1528 1530 1536 1536 1537 1540 1545 1548 1551 1553 1555 1558 1562 1566 1569 1571 1573 1575 1576 1577 1579 1581 1583 1584 1585 1587 1587 1588 1588 1589 1589 1588 1588 1588 1587 1587 1586 1585 1587 1587 1588 1591 1593 1593
1506 1508 1512 1522 1525 1527 1522 1530 1532 1531 1537 1541 1544 1547 1550 1553 1557 1558 1561 1565 1567 1569 1572 1573 1574 1576 1577 1579 1581 1582 1585 1586 1587 1588 1588 1588 1587 1588 1587 1587 1587 1587 1589 1589 1589 1589 1590 1591 1594
1513 1508 1511 1515 1517 1519 1525 1524 1528 1525 1533 1534 1538 1541 1545 1548 1553 1556 1560 1561 1563 1566 1569 1571 1571 1572 1575 1576 1578 1580 1582 1584 1586 1587 1586 1586 1587 1587 1587 1587 1587 1587 1589 1589 1590 1590 1590 1593 1595
1512 1511 1512 1512 1510 1519 1522 1522 1519 1524 1523 1525 1531 1536 1539 1544 1548 1553 1556 1558 1561 1563 1565 1568 1568 1569 1571 1574 1576 1578 1580 1581 1584 1585 1587 1588 1588 1587 1587 1586 1586 1586 1587 1588 1589 1590 1591 1592 1594
1511 1504 1512 1520 1516 1525 1516 1521 1518 1516 1519 1519 1522 1530 1535 1540 1545 1549 1552 1555 1557 1560 1562 1564 1566 1567 1569 1571 1573 1575 1577 1579 1581 1583 1585 1586 1587 1588 1587 1586 1585 1586 1585 1587 1588 1590 1591 1591 1593
1508 1501 1509 1538 1529 1517 1515 1522 1522 1518 1520 1524 1524 1527 1533 1537 1540 1544 1547 1551 1555 1558 1560 1562 1564 1565 1567 1569 1571 1573 1575 1577 1579 1581 1583 1584 1586 1586 1585 1585 1585 1585 1585 1586 1587 1590 1590 1591 1591
1504 1512 1496 1503 1505 1510 1507 1515 1517 1520 1522 1526 1525 1530 1533 1536 1538 1541 1545 1548 1551 1554 1557 1559 1562 1562 1564 1566 1568 1569 1571 1573 1576 1577 1578 1581 1582 1583 1582 1583 1583 1584 1584 1586 1586 1589 1589 1589 1589
1503 1497 1509 1502 1530 1533 1510 1519 1522 1523 1526 1526 1527 1530 1532 1535 1537 1539 1542 1545 1548 1551 1554 1556 1558 1560 1562 1563 1564 1566 1568 1570 1572 1573 1575 1578 1580 1580 1581 1581 1582 1582 1583 1584 1585 1587 1587 1586 1588
1505 1502 1498 1494 1501 1515 1516 1523 1512 1525 1527 1528 1529 1531 1533 1534 1536 1538 1539 1541 1543 1546 1549 1551 1553 1555 1556 1559 1562 1563 1565 1567 1569 1570 1572 1574 1576 1578 1579 1580 1580 1580 1581 1581 1582 1584 1585 1584 1585
1493 1490 1490 1504 1513 1503 1504 1523 1518 1522 1527 1529 1530 1531 1535 1534 1536 1537 1538 1539 1539 1541 1544 1546 1550 1551 1553 1555 1557 1559 1562 1563 1565 1567 1569 1571 1572 1574 1575 1576 1576 1577 1578 1579 1580 1580 1581 1582 1582
Wind_Speed
4 2 1 3 4 2 11 9 12 11 9 7 8 6 9 8 7 10 22 17 19 12 10 9 10 11 11 13 13 13 13 14 15 15 15 14 12 11 11 13 13 13 14 15 15 15 14 14 14
2 2 2 5 1 9 9 8 11 8 11 14 13 10 8 6 8 19 22 20 16 15 11 8 10 10 13 13 13 13 14 16 15 16 14 13 12 9 11 12 13 14 14 12 12 13 12 12 11
3 4 4 3 8 10 8 8 9 12 9 8 6 9 7 4 15 22 18 23 18 11 11 10 10 9 12 13 14 13 15 15 15 14 14 13 12 11 10 12 12 12 12 11 11 10 9 9 11
1 1 3 2 13 10 10 9 9 10 9 5 9 9 10 8 21 21 26 21 17 14 9 10 10 10 12 13 14 14 14 15 14 13 12 11 11 11 10 10 10 10 10 10 9 9 9 9 9
2 2 3 9 12 10 10 9 4 2 4 7 2 8 17 13 15 25 23 21 17 15 10 9 10 8 11 12 13 13 13 13 13 11 10 9 9 7 8 8 8 8 7 7 6 7 8 8 8
3 4 5 10 11 8 8 5 3 4 6 7 15 20 13 16 23 26 18 19 17 15 12 9 10 10 10 10 12 12 12 11 9 8 6 6 6 6 6 6 5 5 5 6 6 5 5 6 6
4 3 9 11 8 6 6 4 4 6 8 9 14 13 16 23 24 25 20 19 15 12 12 10 7 8 9 10 10 10 9 8 7 5 4 4 4 4 4 4 3 3 3 2 3 4 4 3 4
1 3 7 5 5 6 5 9 8 10 13 11 17 8 23 28 27 27 21 19 17 12 9 11 9 8 8 6 9 9 8 7 6 5 4 4 4 4 4 4 3 3 2 2 1 2 3 3 2
1 3 8 5 3 7 11 9 8 11 15 4 4 15 31 29 30 21 20 14 10 10 9 12 8 8 9 8 7 8 8 6 5 3 4 4 2 1 2 4 4 2 2 3 3 1 2 2 1
3 3 5 3 2 8 8 6 13 10 7 12 21 25 28 27 30 25 20 15 13 11 11 9 8 8 7 7 7 7 5 3 5 4 3 2 1 1 2 4 5 4 7 10 10 9 6 3 3
2 5 6 5 6 13 10 9 9 9 9 16 26 31 29 26 23 21 18 16 13 11 10 10 9 9 7 8 6 5 5 4 3 3 3 1 2 3 5 5 6 6 9 8 10 7 8 9 5
5 6 5 6 11 14 9 9 9 7 9 17 23 27 28 23 24 20 17 14 13 13 12 11 8 8 9 7 6 6 5 4 3 2 1 3 4 6 8 7 4 7 11 6 9 10 8 5 8
6 8 7 9 11 13 11 11 8 7 11 20 24 24 24 22 21 17 15 13 13 13 12 11 11 10 9 9 6 6 5 2 2 1 3 3 4 9 7 7 6 5 6 2 5 11 8 9 6
4 4 7 7 12 12 10 12 7 8 19 23 26 24 21 19 18 16 15 14 13 12 11 11 11 12 10 9 9 7 4 3 1 2 3 5 4 8 7 8 8 6 5 2 7 6 8 7 6
3 8 5 4 8 8 11 9 7 15 22 24 23 21 20 19 17 15 14 14 13 12 12 12 12 11 11 11 10 6 4 2 1 3 5 5 4 8 8 8 10 7 5 2 7 7 10 9 8
7 9 5 1 6 5 9 9 12 15 23 25 23 23 20 17 17 15 14 14 14 14 14 14 12 11 11 9 9 6 4 3 2 3 3 4 5 7 8 9 9 9 6 5 8 9 7 8 8
4 8 6 6 4 6 8 11 14 15 20 24 23 22 21 18 18 17 16 14 13 14 15 16 14 12 11 11 9 7 6 4 3 2 2 4 5 8 9 7 8 7 7 6 10 10 9 9 8
8 3 2 2 5 4 7 10 15 16 17 21 21 19 20 20 20 19 17 15 13 13 16 16 13 13 13 11 11 8 7 7 5 3 3 4 3 7 9 5 7 10 6 6 8 11 10 8 7
8 7 3 5 6 4 5 9 14 18 16 18 19 19 19 20 20 18 18 17 15 15 15 16 16 16 14 12 9 9 8 8 6 6 5 3 3 6 8 5 7 6 7 7 9 8 8 7 6
10 6 4 6 8 1 4 8 11 18 17 17 18 18 18 19 19 18 18 18 18 17 17 17 17 15 15 12 10 9 8 8 8 6 5 4 4 4 5 5 3 5 5 7 8 10 7 6 6
8 5 5 1 9 4 6 7 11 15 16 16 19 18 19 19 19 19 19 19 18 19 20 19 19 18 16 15 13 11 9 9 7 6 4 5 3 3 3 5 1 2 5 5 7 8 8 6 6
6 3 3 9 9 1 6 3 12 14 17 18 20 22 21 19 18 16 19 19 19 20 19 19 20 19 18 17 16 13 8 8 7 5 5 5 5 4 3 3 4 3 4 4 4 5 6 8 5
6 2 8 8 6 4 6 5 8 13 15 20 22 23 23 21 21 20 18 17 16 16 18 18 18 20 18 17 17 15 11 9 7 6 5 4 5 3 3 2 3 1 4 3 5 6 7 4 4
4 8 9 6 3 3 5 6 9 7 13 17 24 25 22 21 18 16 16 17 16 15 16 16 17 17 17 18 18 18 14 10 10 8 5 3 2 2 2 1 1 1 5 4 2 4 5 6 5
8 13 3 2 2 6 4 4 9 3 2 3 19 24 24 21 19 17 15 17 17 14 15 15 16 15 15 17 18 18 17 14 10 12 7 7 5 4 6 2 1 2 4 6 5 5 6 4 4
11 10 8 1 5 5 4 4 6 2 4 6 6 14 17 21 21 20 18 16 17 16 15 15 16 15 15 16 16 16 15 14 11 11 12 8 7 6 7 4 3 2 1 3 3 3 5 8 7
7 8 7 7 3 5 4 9 13 9 4 4 6 8 9 12 17 18 17 14 15 15 16 17 16 16 14 13 15 14 13 13 13 13 12 11 10 9 8 8 6 3 4 3 5 4 5 8 8
9 2 6 7 3 4 7 4 8 7 7 6 6 8 6 8 10 13 14 16 16 15 15 16 17 17 14 13 12 12 12 11 14 13 13 13 11 11 9 10 10 8 5 5 7 7 7 7 7
6 9 5 4 5 3 5 9 11 9 9 8 9 8 9 9 10 11 10 11 15 17 18 18 17 17 17 17 16 16 15 13 12 15 14 13 12 12 13 12 12 11 10 10 9 9 11 11 9
7 7 6 9 10 3 7 8 5 10 10 8 8 6 4 4 4 8 10 11 11 14 16 17 17 16 16 18 21 20 18 17 16 14 16 16 15 15 15 14 15 14 14 14 12 13 12 12 13
Wind_Direction
92 67 284 293 218 123 70 78 104 110 106 87 102 64 95 47 17 105 149 151 137 140 125 124 137 141 138 141 140 131 121 116 111 105 99 96 99 104 105 99 111 104 98 96 98 105 102 102 98
170 49 341 290 184 86 74 85 88 70 98 113 95 105 58 79 84 129 142 148 143 137 134 126 136 140 146 146 138 131 120 119 119 109 101 95 87 90 101 106 99 100 100 101 102 100 107 108 101
98 29 318 318 45 51 80 78 94 108 125 141 107 74 92 90 128 136 148 144 144 130 130 143 131 135 137 150 144 136 129 123 117 111 103 95 83 79 101 96 97 99 100 97 98 101 109 112 101
58 345 261 58 84 56 58 83 114 114 113 115 112 86 84 123 140 149 150 152 149 132 124 131 121 130 127 136 138 136 132 124 117 110 101 94 91 87 91 94 99 97 94 93 99 96 98 97 103
308 276 173 87 79 76 75 88 94 77 91 141 156 98 117 130 145 147 155 153 153 137 138 127 128 124 125 126 129 134 131 133 125 113 102 96 91 96 101 97 92 87 88 82 97 106 99 84 80
257 264 159 92 94 93 84 65 44 74 110 119 120 119 124 144 145 149 158 164 159 145 139 145 133 130 133 136 131 136 134 137 129 114 100 92 83 91 101 95 85 82 81 87 83 106 111 94 72
331 317 74 101 110 109 75 52 62 94 110 126 134 132 137 149 156 148 165 166 158 156 146 144 126 137 138 140 143 150 153 151 145 135 120 111 89 89 91 86 86 80 71 70 87 93 118 122 94
286 270 114 102 92 90 103 87 91 86 97 119 132 152 154 158 156 159 161 164 164 162 153 135 142 135 130 133 144 147 150 154 150 156 126 102 66 64 52 55 41 56 19 354 311 124 122 128 151
261 197 101 77 33 119 125 120 89 105 125 110 229 153 153 154 156 172 166 174 180 178 181 141 147 144 157 166 158 151 153 158 140 128 113 85 118 35 32 240 239 177 230 227 224 244 215 153 109
255 72 74 61 133 139 135 114 129 129 113 114 117 135 149 156 167 170 174 186 183 182 185 174 156 158 166 162 180 164 181 171 163 157 143 96 257 304 309 294 303 303 284 247 231 193 211 120 169
151 108 123 74 113 136 129 120 135 137 110 146 144 147 159 168 168 178 185 185 186 189 192 188 190 172 171 172 174 175 189 184 187 122 115 293 339 313 288 326 299 306 308 252 220 184 192 178 178
124 133 149 125 132 135 130 128 131 86 100 145 151 155 161 169 177 187 186 187 187 191 191 194 197 183 180 178 178 186 182 193 182 214 9 324 349 321 329 350 326 323 347 164 182 186 185 218 193
107 141 134 145 142 133 133 123 134 96 149 149 154 161 167 173 183 187 189 191 189 192 197 195 189 195 184 183 192 183 181 180 199 313 284 304 328 305 326 344 0 346 9 149 144 187 190 195 202
97 112 106 145 138 137 133 130 139 122 149 155 162 168 173 177 178 185 190 193 196 196 197 203 193 195 191 188 180 179 190 205 202 277 292 335 327 306 338 351 5 8 9 132 157 177 181 183 204
74 158 132 72 133 126 137 151 97 144 156 165 168 169 178 190 189 191 197 199 202 203 199 199 196 199 190 185 177 187 192 240 262 299 304 349 338 321 349 351 1 8 1 160 163 159 167 181 185
142 151 151 143 150 145 221 137 139 159 162 173 177 181 188 189 193 197 201 200 199 196 199 194 195 194 194 187 189 200 214 226 265 327 328 333 354 354 359 358 2 12 34 132 149 145 144 148 152
91 138 88 148 216 163 222 130 154 168 169 173 182 185 192 206 204 197 196 195 191 193 197 196 193 194 200 211 206 218 224 228 252 324 304 322 347 7 15 356 17 27 53 99 144 145 143 125 143
346 352 100 144 156 202 159 122 156 175 175 179 183 189 191 202 204 200 196 193 189 192 198 205 206 209 206 212 223 227 228 234 246 271 289 317 323 4 20 17 28 56 61 100 133 143 148 148 154
309 305 265 124 140 158 168 149 167 176 184 178 184 188 191 197 200 202 205 204 200 199 201 205 210 213 218 224 225 235 235 237 239 260 264 287 318 356 15 31 37 59 77 119 122 141 147 158 162
313 281 183 108 144 215 155 184 176 181 187 188 189 188 192 188 190 198 206 209 210 213 213 214 211 218 224 223 225 223 227 236 237 245 238 271 319 350 3 47 76 96 88 100 129 138 146 156 163
302 279 136 109 154 131 179 170 184 192 192 193 199 202 200 199 199 198 207 214 217 218 219 218 221 221 228 222 236 251 243 235 237 243 261 256 275 326 331 19 95 100 123 131 129 139 151 163 181
296 13 211 151 191 159 231 92 184 186 197 200 201 206 211 213 215 222 212 217 222 228 229 230 230 230 233 232 235 236 221 218 216 212 237 236 263 287 294 352 0 140 146 169 152 162 173 149 178
11 103 165 168 201 237 161 252 101 186 203 203 207 203 209 210 216 217 222 223 224 227 228 228 232 233 230 236 227 234 221 222 212 219 258 230 250 257 264 315 343 244 142 205 187 190 157 172 171
154 135 135 160 227 187 95 281 129 164 221 206 208 211 210 206 209 215 223 226 230 225 223 222 226 236 236 238 232 232 223 213 211 224 223 234 230 265 269 254 224 220 189 199 209 203 211 176 188
235 219 189 205 185 54 119 229 55 20 135 247 198 207 211 212 214 218 222 226 227 221 219 218 224 228 231 233 232 233 236 234 234 229 230 231 243 242 253 266 138 193 193 201 201 226 223 234 215
214 276 307 290 19 46 130 53 87 76 146 154 148 189 205 215 216 219 224 228 227 223 217 216 220 226 224 225 231 232 234 235 231 238 218 228 235 235 228 265 246 234 248 218 234 227 223 240 238
141 233 14 284 175 256 69 105 87 94 124 192 205 172 202 213 222 222 224 221 221 224 222 222 225 235 235 226 229 234 234 226 224 224 234 237 236 227 241 236 235 248 244 287 244 222 245 230 247
288 18 218 221 221 288 113 102 96 95 98 117 143 174 173 171 191 200 215 223 230 229 230 229 227 231 231 223 231 233 237 239 236 235 234 227 229 232 235 237 239 247 254 267 282 243 255 243 238
173 208 236 324 299 308 258 94 102 110 118 117 116 137 157 165 185 193 206 215 224 227 225 226 229 223 229 232 227 229 230 234 239 240 239 235 235 243 246 247 249 259 253 259 266 263 244 258 252
280 305 252 232 174 259 311 96 142 123 123 132 123 124 134 144 205 232 233 238 235 219 224 224 224 228 233 231 234 243 250 247 239 245 242 242 244 244 246 247 254 258 259 264 261 265 253 258 260